Terminal Aerodrome Forecast
Issued by NWS

Home | Current Version | Previous Version | Text Only | Print | Product List | Glossary On
Versions: 1 2 3 4 5 6 7 8 9 10 11 12 13 14 15 16 17 18 19 20 21 22 23 24 25 26 27 28 29 30 31 32 33 34 35 36 37 38 39 40 41 42 43 44 45 46
000
FTUS42 KGSP 190700 AAA
TAFHKY
TAF AMD
KHKY 190744Z 1908/2006 04003KT 6SM BR SCT013 BKN100
      TEMPO 1908/1911 4SM BR BKN013
     FM191100 00000KT 4SM BR BKN013
     FM191400 09004KT P6SM BKN021
     FM191800 10004KT P6SM BKN050
     FM200300 04004KT P6SM BKN070=

USA.gov is the U.S. government's official web portal to all federal, state and local government web resources and services.